ARIANE 2 DEB, 29023

Orbit data source: Space-Track

ARIANE 2 DEB, 29023 is space debris in HEO originally from a launch on Fri, 27 Jan 1989 UTC launched from the French Guiana (FRGUI). Debris objects in space refer to the collection of defunct objects orbiting the Earth. Examples of debris include non-operational satellites, rocket bodies, and fragments generated from explosions, collisions, or faulty payload assembly.

Loading next visibility...
Identifier
29023, 1989-006AP
Orbit
HEO
Country
Flag of FRFR
Related business
Manufacturer
EADS/LV
Mission
Spacecraft
Bus & Motor
Unknown
Mass
Unknown
Launch date (UTC)
1989-01-27 (37 years ago)
Launch vehicle
Unknown
Launch site
French Guiana (FRGUI)
Object type
Payload
Rocket body
Debris
Shape & HBR
Unknown shape, 1.1 m
Radar Cross Section
Medium (>0.1 m² and <1 m²)

Expand to show TLE details & history
Last TLE update: 4 months ago

TLE from 4 months ago
0 ARIANE 2 DEB
1 29023U 89006AP  26076.10016226 -.00000285  00000-0 -75178-2 0  9995
2 29023   8.3889  17.0131 7077497 207.2662 341.2703  2.25188144 98027
Epoch: 2026-03-17T02:24Z
TLE epoch observation values (Epoch: 2026-03-17T02:24:14.019Z)
Latitude
7.80879°
Longitude
-82.12033°
Altitude
6,843.67 km
Speed
6.639 km/s
True Right ascension
08h 34m 29s
True Declination
7° 47' 02"
Sunlit
Object was in daylight at epoch
Visualization orbit readout
Latitude
Unknown
Longitude
Unknown
Altitude
Unknown
Speed
Unknown
Apparent Right ascension
Unknown
Apparent Declination
Unknown
Sunlit
N/A
Visualization observer readout
Local Sidereal Time
00:02:15
Azimuth
Unknown
Elevation
Unknown
Doppler factor
Unknown
Orbital elements
Apogee altitude
35,618.662 km
Perigee altitude
808.851 km
Semi-major axis
24,591.893 km
Eccentricity
0.70775
Inclination
8.3889°
RAAN
17.0131°
Arg. of periapsis
207.2662°
True anomaly
263.64911°
Mean anomaly
341.2703°
Eccentric anomaly
310.37988°
Mean motion
0.5628 °/min
Orbital period
639.66 mins
BSTAR
-0.0075178
Loading maneuver chart data...
Computing Atmospheric mass density...
Loading historical data...
Loading historical data...
Loading historical data...
Loading historical data...
Loading historical data...
Loading historical data...
Loading historical data...

Documentation

Showing up to 5 results
|